GW4567 Weather Reports


time (UTC)temp
F
wind
direction
speed
knots
gust
knots
rain 1hr
in
rain 24hr
in
rain mn
in
humidity
%
barometer
mb
20260507231559 61 44 10.4 13.0 0.00 0.00 0.00 39 1011.7
20260507231057 60 29 12.2 13.9 0.00 0.00 0.00 39 1011.4
20260507230553 60 31 7.8 9.6 0.00 0.00 0.00 40 1011.6
20260507230050 61 323 5.2 7.0 0.00 0.00 0.00 38 1011.6
20260507225544 61 26 7.0 8.7 0.00 0.00 0.00 39 1011.3
20260507225041 61 11 10.4 13.9 0.00 0.00 0.00 37 1011.3
20260507224537 62 8 8.7 11.3 0.00 0.00 0.00 37 1011.3
20260507224034 61 38 11.3 13.9 0.00 0.00 0.00 38 1011.1
20260507223530 62 48 11.3 12.2 0.00 0.00 0.00 38 1011.2
20260507223027 61 326 12.2 13.0 0.00 0.00 0.00 38 1011.1
20260507222524 61 46 9.6 12.2 0.00 0.00 0.00 39 1010.9
20260507222020 61 7 9.6 12.2 0.00 0.00 0.00 37 1010.7
20260507221517 61 17 12.2 13.9 0.00 0.00 0.00 37 1010.7
20260507221014 62 15 9.6 14.8 0.00 0.00 0.00 37 1010.8
20260507220511 62 348 11.3 15.6 0.00 0.00 0.00 36 1010.6
20260507220008 63 32 13.9 15.6 0.00 0.00 0.00 35 1010.7
20260507215504 62 17 13.9 18.2 0.00 0.00 0.00 37 1010.7
20260507215002 64 37 13.9 16.5 0.00 0.00 0.00 36 1010.5
20260507214459 63 26 7.0 13.0 0.00 0.00 0.00 37 1010.7
20260507213955 63 36 9.6 11.3 0.00 0.00 0.00 37 1010.5
20260507213452 64 10 11.3 15.6 0.00 0.00 0.00 36 1010.5
20260507212948 64 30 13.0 15.6 0.00 0.00 0.00 35 1010.2
20260507212444 64 28 12.2 13.0 0.00 0.00 0.00 36 1010.3
20260507211941 64 36 14.8 16.5 0.00 0.00 0.00 36 1010.5
20260507211438 64 37 8.7 13.9 0.00 0.00 0.00 36 1010.3
20260507210935 64 25 7.8 8.7 0.00 0.00 0.00 35 1010.3
20260507210432 65 56 6.1 7.8 0.00 0.00 0.00 33 1010.1
20260507205928 65 345 10.4 13.9 0.00 0.00 0.00 35 1010.2
20260507205426 65 16 12.2 13.9 0.00 0.00 0.00 35 1010.3
20260507204922 64 14 9.6 15.6 0.00 0.00 0.00 35 1010.3
20260507204418 65 32 13.9 18.2 0.00 0.00 0.00 36 1010.3
20260507203916 65 37 13.9 19.1 0.00 0.00 0.00 35 1010.3
20260507203414 65 326 9.6 13.9 0.00 0.00 0.00 36 1010.3
20260507202910 65 323 11.3 18.2 0.00 0.00 0.00 34 1010.4
20260507202406 65 348 11.3 15.6 0.00 0.00 0.00 35 1010.4
20260507201902 65 22 12.2 15.6 0.00 0.00 0.00 35 1010.3
20260507201357 65 18 9.6 12.2 0.00 0.00 0.00 35 1010.4
20260507200854 65 16 13.0 18.2 0.00 0.00 0.00 35 1010.5
20260507200350 65 18 13.0 18.2 0.00 0.00 0.00 36 1010.4
20260507195846 65 32 6.1 9.6 0.00 0.00 0.00 38 1010.4
20260507195344 65 336 9.6 11.3 0.00 0.00 0.00 36 1010.5
20260507194841 65 336 11.3 14.8 0.00 0.00 0.00 36 1010.5
20260507194337 65 34 11.3 16.5 0.00 0.00 0.00 35 1010.6
20260507193834 64 24 11.3 14.8 0.00 0.00 0.00 37 1010.4
20260507193326 64 42 12.2 14.8 0.00 0.00 0.00 38 1010.5
20260507192821 65 36 13.0 15.6 0.00 0.00 0.00 36 1010.6
20260507192318 64 28 12.2 14.8 0.00 0.00 0.00 38 1010.8
20260507191814 65 19 11.3 12.2 0.00 0.00 0.00 38 1010.5
20260507191310 64 350 13.0 15.6 0.00 0.00 0.00 37 1010.5
20260507190807 64 31 10.4 13.9 0.00 0.00 0.00 39 1010.6
20260507190306 66 24 13.0 19.1 0.00 0.00 0.00 37 1010.6
20260507185804 66 48 11.3 14.8 0.00 0.00 0.00 38 1010.7
20260507185300 66 314 9.6 11.3 0.00 0.00 0.00 39 1010.3
20260507184758 66 28 7.8 12.2 0.00 0.00 0.00 38 1010.6
20260507184256 66 12 6.1 9.6 0.00 0.00 0.00 38 1010.6
20260507183752 66 7 3.5 9.6 0.00 0.00 0.00 38 1010.7
20260507183249 67 331 8.7 9.6 0.00 0.00 0.00 39 1010.7
20260507182747 67 351 6.1 11.3 0.00 0.00 0.00 40 1010.5
20260507182242 66 336 4.3 5.2 0.00 0.00 0.00 42 1010.7
20260507181739 66 32 6.1 7.8 0.00 0.00 0.00 43 1010.6
20260507181235 65 293 1.7 7.0 0.00 0.00 0.00 43 1010.8
20260507180732 65 352 8.7 13.9 0.00 0.00 0.00 43 1010.6
20260507180229 65 356 4.3 11.3 0.00 0.00 0.00 41 1011.0
20260507175724 65 17 3.5 11.3 0.00 0.00 0.00 43 1010.8
20260507175221 64 358 7.0 9.6 0.00 0.00 0.00 41 1010.9
20260507174719 65 341 8.7 11.3 0.00 0.00 0.00 42 1010.9
20260507174217 64 13 5.2 7.8 0.00 0.00 0.00 44 1011.0
20260507173715 65 321 4.3 6.1 0.00 0.00 0.00 44 1011.3
20260507173211 64 299 2.6 2.6 0.00 0.00 0.00 43 1011.4
20260507172708 64 326 2.6 3.5 0.00 0.00 0.00 45 1011.4
20260507172204 63 322 7.8 9.6 0.00 0.00 0.00 46 1011.6
20260507171704 61 346 6.1 12.2 0.00 0.00 0.00 46 1011.7
20260507171202 62 28 7.8 14.8 0.00 0.00 0.00 45 1011.7
20260507170659 62 326 6.1 8.7 0.00 0.00 0.00 46 1011.9
20260507170156 63 38 3.5 7.0 0.00 0.00 0.00 46 1012.0
20260507165651 62 8 0.9 2.6 0.00 0.00 0.00 48 1011.9
20260507165148 61 333 5.2 7.8 0.00 0.00 0.00 48 1012.2
20260507164644 61 51 1.7 11.3 0.00 0.00 0.00 48 1012.2
20260507164141 60 73 7.8 9.6 0.00 0.00 0.00 49 1012.4
20260507163633 61 356 6.1 7.8 0.00 0.00 0.00 49 1012.5
20260507163131 62 60 4.3 5.2 0.00 0.00 0.00 48 1012.4
20260507162626 62 12 0.9 0.9 0.00 0.00 0.00 49 1012.2
20260507162123 62 93 1.7 2.6 0.00 0.00 0.00 48 1012.4
20260507161619 62 324 1.7 3.5 0.00 0.00 0.00 49 1012.5
20260507161116 61 183 1.7 6.1 0.00 0.00 0.00 48 1012.7
20260507160612 61 338 4.3 5.2 0.00 0.00 0.00 49 1012.6
20260507160108 60 200 1.7 1.7 0.00 0.00 0.00 48 1012.7
20260507155603 60 342 1.7 2.6 0.00 0.00 0.00 51 1012.6
20260507155100 59 225 0.9 2.6 0.00 0.00 0.00 51 1012.8
20260507154558 59 210 2.6 2.6 0.00 0.00 0.00 50 1013.0
20260507154055 59 249 1.7 3.5 0.00 0.00 0.00 53 1013.0
20260507153551 59 241 3.5 6.1 0.00 0.00 0.00 52 1013.1
20260507153047 60 308 1.7 2.6 0.00 0.00 0.00 52 1013.3
20260507152543 60 184 1.7 3.5 0.00 0.00 0.00 51 1013.2
20260507152040 60 187 0.0 6.1 0.00 0.00 0.00 52 1013.3
20260507151536 61 81 2.6 2.6 0.00 0.00 0.00 54 1013.3
20260507151033 61 107 0.9 1.7 0.00 0.00 0.00 52 1013.4
20260507150530 58 272 0.0 0.0 0.00 0.00 0.00 56 1013.4
20260507150027 58 46 1.7 5.2 0.00 0.00 0.00 57 1013.6
20260507145522 59 75 3.5 6.1 0.00 0.00 0.00 57 1013.8
20260507145021 59 48 1.7 5.2 0.00 0.00 0.00 57 1013.8
20260507144517 58 109 1.7 2.6 0.00 0.00 0.00 58 1013.8
20260507144014 57 280 0.0 0.9 0.00 0.00 0.00 60 1013.8
20260507143511 57 116 0.0 0.9 0.00 0.00 0.00 60 1013.9
20260507143008 56 62 2.6 2.6 0.00 0.00 0.00 63 1014.0
20260507142503 55 80 3.5 3.5 0.00 0.00 0.00 63 1014.2
20260507142000 55 62 3.5 3.5 0.00 0.00 0.00 62 1014.3
20260507141456 56 26 2.6 5.2 0.00 0.00 0.00 63 1014.3
20260507140953 55 303 1.7 1.7 0.00 0.00 0.00 63 1014.2
20260507140450 55 259 1.7 3.5 0.00 0.00 0.00 63 1014.6
20260507135947 55 87 4.3 5.2 0.00 0.00 0.00 64 1014.7
20260507135444 54 104 3.5 5.2 0.00 0.00 0.00 68 1014.7
20260507134941 54 150 0.9 5.2 0.00 0.00 0.00 69 1014.7
20260507134438 53 54 1.7 2.6 0.00 0.00 0.00 71 1014.9
20260507133934 53 81 2.6 3.5 0.00 0.00 0.00 70 1014.8
20260507133430 53 83 1.7 3.5 0.00 0.00 0.00 71 1014.9
20260507132929 53 85 2.6 5.2 0.00 0.00 0.00 71 1015.0
20260507132424 52 69 3.5 5.2 0.00 0.00 0.00 71 1015.0
20260507131921 52 81 4.3 5.2 0.00 0.00 0.00 71 1015.1
20260507131418 53 82 3.5 5.2 0.00 0.00 0.00 71 1015.0
20260507130915 53 87 4.3 5.2 0.00 0.00 0.00 70 1014.9
20260507130412 52 81 4.3 6.1 0.00 0.00 0.00 70 1015.1
20260507125911 52 82 4.3 5.2 0.00 0.00 0.00 71 1015.3
20260507125408 51 82 4.3 7.8 0.00 0.00 0.00 71 1015.1
20260507124906 51 90 5.2 7.0 0.00 0.00 0.00 72 1015.0
20260507124401 51 81 3.5 6.1 0.00 0.00 0.00 72 1015.2
20260507123900 51 88 4.3 6.1 0.00 0.00 0.00 73 1015.0
20260507123357 51 62 3.5 7.0 0.00 0.00 0.00 73 1015.0
20260507122853 51 59 5.2 6.1 0.00 0.00 0.00 73 1015.3
20260507122349 51 39 3.5 3.5 0.00 0.00 0.00 77 1015.2
20260507121845 51 11 1.7 2.6 0.00 0.00 0.00 78 1015.0
20260507121340 51 21 0.9 1.7 0.00 0.00 0.00 78 1015.0
20260507120837 51 34 0.0 0.0 0.00 0.00 0.00 78 1015.0
20260507120334 51 324 1.7 2.6 0.00 0.00 0.00 79 1015.0
20260507115830 51 237 0.0 0.0 0.00 0.00 0.00 79 1015.0
20260507115326 50 118 0.0 0.0 0.00 0.00 0.00 80 1014.8
20260507114822 50 164 0.0 0.9 0.00 0.00 0.00 80 1014.9
20260507114319 50 178 0.0 0.9 0.00 0.00 0.00 81 1014.9
20260507113817 51 231 0.0 0.0 0.00 0.00 0.00 82 1014.7
20260507113313 51 191 0.0 0.0 0.00 0.00 0.00 82 1014.7
20260507112811 51 184 0.0 0.0 0.00 0.00 0.00 82 1014.4
20260507112308 51 137 0.0 0.0 0.00 0.00 0.00 82 1014.4
20260507111806 51 171 0.0 0.9 0.00 0.00 0.00 82 1014.3
20260507111302 51 130 0.0 1.7 0.00 0.00 0.00 82 1014.3
20260507110758 51 163 2.6 2.6 0.00 0.00 0.00 82 1014.4
20260507110255 51 123 3.5 5.2 0.00 0.00 0.00 82 1014.2
20260507105752 51 95 3.5 7.0 0.00 0.00 0.00 82 1014.4
20260507105247 51 139 2.6 2.6 0.00 0.00 0.00 82 1014.1
20260507104745 51 160 0.0 1.7 0.00 0.00 0.00 82 1014.3
20260507104242 51 176 0.0 0.9 0.00 0.00 0.00 81 1014.4
20260507103737 51 143 0.9 2.6 0.00 0.00 0.00 81 1014.1
20260507103234 51 82 1.7 1.7 0.00 0.00 0.00 82 1014.0
20260507102730 51 130 1.7 1.7 0.00 0.00 0.00 82 1014.0
20260507102227 51 192 0.0 0.0 0.00 0.00 0.00 82 1013.9
20260507101723 51 256 0.0 0.0 0.00 0.00 0.00 82 1014.0
20260507101218 51 246 0.0 0.0 0.00 0.00 0.00 82 1013.8
20260507100716 51 175 0.0 0.0 0.00 0.00 0.00 81 1013.5
20260507100214 51 175 0.0 0.0 0.00 0.00 0.00 81 1013.5
20260507095712 51 270 0.0 0.0 0.00 0.00 0.00 80 1013.6
20260507095208 51 193 0.0 0.0 0.00 0.00 0.00 80 1013.4
20260507094705 51 193 0.0 0.9 0.00 0.00 0.00 80 1013.4
20260507094202 52 193 0.0 0.9 0.00 0.00 0.00 79 1013.6
20260507093659 52 193 0.0 0.0 0.00 0.00 0.00 78 1013.6
20260507093158 52 193 0.0 0.0 0.00 0.00 0.00 78 1013.4
20260507092654 52 193 0.0 0.0 0.00 0.00 0.00 78 1013.6
20260507092151 52 204 0.0 0.9 0.00 0.00 0.00 78 1013.5
20260507091647 52 204 0.0 0.0 0.00 0.00 0.00 79 1013.9
20260507091144 52 214 0.9 0.9 0.00 0.00 0.00 79 1013.7
20260507090639 52 254 0.0 0.9 0.00 0.00 0.00 78 1013.5
20260507090137 52 275 0.9 1.7 0.00 0.00 0.00 78 1013.3
20260507085633 52 257 0.0 0.9 0.00 0.00 0.00 78 1013.5
20260507085130 52 325 0.0 0.0 0.00 0.00 0.00 77 1013.4
20260507084627 52 325 0.0 0.0 0.00 0.00 0.00 75 1013.5
20260507084124 52 271 0.0 0.9 0.00 0.00 0.00 76 1013.5
20260507083620 52 311 0.9 1.7 0.00 0.00 0.00 77 1013.8
20260507083118 52 271 1.7 2.6 0.00 0.00 0.00 77 1013.8
20260507082613 52 274 0.0 0.9 0.00 0.00 0.00 77 1014.0
20260507082110 52 272 0.9 1.7 0.00 0.00 0.00 77 1013.7
20260507081606 52 267 0.9 0.9 0.00 0.00 0.00 77 1013.8
20260507081103 52 228 0.0 0.0 0.00 0.00 0.00 77 1013.8
20260507080559 52 228 0.0 0.9 0.00 0.00 0.00 77 1013.6
20260507080056 52 228 0.0 0.9 0.00 0.00 0.00 77 1013.6
20260507075551 52 275 0.0 0.9 0.00 0.00 0.00 76 1013.8
20260507075047 52 231 1.7 1.7 0.00 0.00 0.00 76 1013.6
20260507074544 52 261 0.0 0.0 0.00 0.00 0.00 75 1013.6
20260507074043 53 295 0.9 0.9 0.00 0.00 0.00 75 1013.5
20260507073538 53 277 0.0 0.9 0.00 0.00 0.00 75 1013.6
20260507073035 53 13 0.9 1.7 0.00 0.00 0.00 74 1013.3
20260507072533 53 284 0.0 0.9 0.00 0.00 0.00 73 1013.3
20260507072030 53 299 0.9 0.9 0.00 0.00 0.00 72 1013.3
20260507071527 53 277 0.9 0.9 0.00 0.00 0.00 72 1013.3
20260507071024 53 319 0.9 1.7 0.00 0.00 0.00 71 1013.3
20260507070521 53 299 1.7 1.7 0.00 0.00 0.00 72 1013.4
20260507070018 53 304 1.7 1.7 0.00 0.00 0.00 72 1013.5
20260507065514 53 226 0.0 0.0 0.00 0.00 0.00 72 1013.4
20260507065011 53 251 0.9 0.9 0.00 0.00 0.00 72 1013.3
20260507064509 53 255 0.9 0.9 0.00 0.00 0.00 72 1013.2
20260507064008 54 40 0.9 0.9 0.00 0.00 0.00 72 1013.2
20260507063504 54 31 4.3 7.0 0.00 0.00 0.00 72 1013.5
20260507063001 53 357 7.0 7.0 0.00 0.00 0.00 75 1013.5
20260507062458 53 21 3.5 5.2 0.00 0.00 0.00 77 1013.4
20260507061955 53 19 2.6 5.2 0.00 0.00 0.00 81 1013.8
20260507061453 54 212 1.7 2.6 0.00 0.00 0.00 82 1013.8
20260507060951 53 126 0.0 1.7 0.00 0.00 0.00 81 1013.8
20260507060448 53 163 2.6 3.5 0.00 0.00 0.00 82 1013.8
20260507055945 53 313 3.5 6.1 0.00 0.00 0.00 83 1013.9
20260507055440 53 187 1.7 3.5 0.00 0.00 0.00 86 1014.1
20260507054937 53 211 3.5 5.2 0.00 0.00 0.00 86 1013.8
20260507054433 53 224 5.2 6.1 0.00 0.00 0.00 86 1014.1
20260507053930 53 214 3.5 3.5 0.00 0.00 0.00 85 1014.2
20260507053428 53 222 1.7 1.7 0.00 0.00 0.00 85 1013.9
20260507052926 53 119 0.9 1.7 0.00 0.00 0.00 85 1013.9
20260507052423 53 201 0.9 3.5 0.00 0.00 0.00 87 1013.9
20260507051920 53 232 3.5 3.5 0.00 0.00 0.00 87 1014.0
20260507051418 53 182 1.7 2.6 0.00 0.00 0.00 87 1013.7
20260507050915 53 197 5.2 7.0 0.00 0.00 0.00 87 1013.7
20260507050411 53 133 2.6 5.2 0.00 0.00 0.00 87 1013.6
20260507045908 54 208 3.5 6.1 0.00 0.00 0.00 86 1013.7
20260507045405 54 220 1.7 2.6 0.00 0.00 0.00 86 1013.7
20260507044902 54 204 3.5 5.2 0.00 0.00 0.00 85 1013.4
20260507044358 54 196 1.7 3.5 0.00 0.00 0.00 85 1013.5
20260507043854 54 136 2.6 3.5 0.00 0.00 0.00 85 1013.3
20260507043346 54 123 2.6 5.2 0.00 0.00 0.00 85 1013.1
20260507042842 54 194 1.7 5.2 0.00 0.00 0.00 84 1013.1
20260507042338 55 116 2.6 5.2 0.00 0.00 0.00 84 1013.2
20260507041835 56 106 1.7 2.6 0.00 0.00 0.00 83 1013.3
20260507041331 56 218 2.6 2.6 0.00 0.00 0.00 83 1013.1
20260507040828 56 217 0.0 0.9 0.00 0.00 0.00 82 1013.3
20260507040324 56 113 0.0 0.9 0.00 0.00 0.00 82 1013.3
20260507035820 56 180 0.0 0.9 0.00 0.05 0.05 82 1013.5
20260507035315 56 123 0.0 0.9 0.00 0.05 0.05 81 1013.1
20260507034814 57 138 2.6 2.6 0.00 0.05 0.05 81 1012.4
20260507034310 57 123 0.9 2.6 0.00 0.05 0.05 81 1012.7
20260507033808 57 183 1.7 1.7 0.00 0.05 0.05 81 1013.1
20260507033306 57 142 0.9 2.6 0.00 0.05 0.05 80 1013.6
20260507032802 57 128 1.7 3.5 0.00 0.05 0.05 80 1013.7
20260507032258 57 191 2.6 6.1 0.00 0.05 0.05 80 1013.1
20260507031755 57 211 2.6 5.2 0.00 0.05 0.05 81 1012.7
20260507031252 57 219 3.5 3.5 0.00 0.05 0.05 80 1012.9
20260507030749 57 224 1.7 2.6 0.00 0.05 0.05 80 1012.9
20260507030246 58 230 0.9 1.7 0.00 0.05 0.05 80 1013.3
20260507025743 58 261 1.7 1.7 0.00 0.05 0.05 80 1013.4
20260507025240 58 176 0.9 1.7 0.00 0.05 0.05 79 1012.9
20260507024739 58 179 0.9 1.7 0.00 0.05 0.05 79 1013.1
20260507024235 58 193 1.7 1.7 0.00 0.05 0.05 79 1013.3
20260507023731 58 108 2.6 3.5 0.00 0.05 0.05 79 1013.5
20260507023228 58 160 0.9 1.7 0.00 0.05 0.05 79 1013.0
20260507022725 58 168 1.7 2.6 0.00 0.05 0.05 79 1012.7
20260507022221 58 196 1.7 2.6 0.00 0.05 0.05 78 1012.8
20260507021713 58 149 0.9 1.7 0.00 0.05 0.05 78 1012.9
20260507021208 59 187 1.7 3.5 0.00 0.05 0.05 78 1012.7
20260507020707 59 189 0.9 1.7 0.00 0.05 0.05 78 1012.6
20260507020202 59 221 2.6 2.6 0.00 0.05 0.05 78 1012.6
20260507015700 59 207 3.5 3.5 0.00 0.05 0.05 78 1012.4
20260507015158 59 125 1.7 1.7 0.00 0.05 0.05 78 1012.7
20260507014654 60 94 3.5 3.5 0.00 0.05 0.05 76 1012.3
20260507014150 60 71 1.7 2.6 0.00 0.05 0.05 75 1012.1
20260507013647 60 127 0.9 0.9 0.00 0.05 0.05 75 1012.1
20260507013144 60 125 2.6 3.5 0.00 0.05 0.05 75 1012.0
20260507012642 61 215 0.0 0.9 0.00 0.05 0.05 75 1012.2
20260507012137 61 136 1.7 2.6 0.00 0.05 0.05 75 1012.2
20260507011636 61 219 0.0 0.0 0.00 0.05 0.05 75 1012.3
20260507011131 61 268 0.0 0.9 0.00 0.05 0.05 75 1012.2
20260507010626 61 34 0.9 5.2 0.00 0.05 0.05 74 1012.2
20260507010122 61 114 4.3 5.2 0.00 0.05 0.05 75 1012.1
20260507005620 61 84 1.7 5.2 0.00 0.05 0.05 75 1011.9
20260507005116 61 195 0.0 1.7 0.00 0.05 0.05 76 1011.8
20260507004613 61 225 2.6 2.6 0.00 0.05 0.05 77 1011.8
20260507004110 61 247 2.6 2.6 0.00 0.05 0.05 77 1012.0
20260507003606 61 333 1.7 1.7 0.00 0.05 0.05 77 1011.9
20260507003101 61 291 0.9 1.7 0.00 0.05 0.05 77 1011.6
20260507002558 61 6 1.7 2.6 0.00 0.05 0.05 76 1011.9
20260507002054 62 357 1.7 3.5 0.00 0.05 0.05 76 1012.4
20260507001551 62 22 2.6 2.6 0.00 0.05 0.05 74 1012.3
20260507001048 63 357 2.6 2.6 0.00 0.05 0.05 73 1012.1
20260507000544 63 333 0.9 1.7 0.00 0.05 0.05 71 1012.0
20260507000040 63 301 0.9 1.7 0.00 0.05 0.05 71 1011.9
20260506235537 63 270 1.7 1.7 0.00 0.05 0.05 71 1011.8
20260506235033 63 206 1.7 1.7 0.00 0.05 0.05 72 1012.0
20260506234531 63 330 0.9 2.6 0.00 0.05 0.05 72 1011.9
20260506234027 64 308 1.7 3.5 0.00 0.05 0.05 71 1011.9
20260506233524 64 337 2.6 5.2 0.00 0.05 0.05 71 1011.9
20260506233016 64 262 1.7 2.6 0.00 0.05 0.05 70 1011.7
20260506232512 64 291 2.6 3.5 0.00 0.05 0.05 70 1011.6
20260506232007 64 304 0.9 2.6 0.00 0.05 0.05 69 1011.7